{"data":{"norad_id":66246,"intl_designator":"2025-245N","name":"STARLINK-35434","alt_names":[],"object_type":"PAYLOAD","status":"ACTIVE","operator":null,"country":"US","launch_date":"2025-10-29","launch_site_code":"AFETR","launch_vehicle":null,"mission":null,"orbit_class":"UNKNOWN","rcs_meters":null,"size_class":null,"mass_kg":null,"dimensions":null,"purposes":["comms"],"wikipedia_slug":null,"has_3d_model":false,"image_url":null,"decayed_at":null,"tle_current":{"epoch":"2026-05-24T19:36:58.786848Z","epoch_age_seconds":84756,"freshness":"FRESH","line1":"1 66246U 25245N   26144.81734707  .00026116  00000+0  85032-3 0  9992","line2":"2 66246  53.1599 290.1739 0001122  81.7536 278.3593 15.31702594 32701","mean_motion":15.31702594,"eccentricity":0.0001122,"inclination_deg":53.1599,"raan_deg":290.1739,"arg_perigee_deg":81.7536,"mean_anomaly_deg":278.3593,"bstar":0.00085032,"rev_number":3270,"period_min":94.013028745971,"perigee_km":469.96381952627,"apogee_km":471.50070578881,"semimajor_km":6848.8692626575,"source":"CELESTRAK","updated_at":"2026-05-25T13:38:21.135968Z"}}}